#timestamp,LO_Frequency,Hit 
1500771615.3,286047063.8,N
1500771635.1,286047066.8,N
1500771655.9,286047064.4,N
1500771675.7,286047064.9,N
1500771695.5,286047063.8,N
1500771715.4,286047063.8,N
1500771735.2,286047064.4,N
1500771755.0,286047066.7,N
1500771755.9,286047066.7,N
1500771775.8,286047064.1,N
1500771795.6,286047066.8,N
1500771815.4,286047064.6,N
1500771835.3,286047064.0,N
1500771855.1,286047066.1,N
1500771856.0,286047066.1,N
1500771875.8,286047068.4,N
1500771895.7,286047068.1,N
1500771915.5,286047067.9,N
1500771935.3,286047065.4,N
1500771955.1,286047064.2,N
1500771975.9,286047062.1,N
1500771995.7,286047064.7,N
1500772015.5,286047062.9,N
1500772035.4,286047064.7,N
1500772055.2,286047063.3,N
1500772075.0,286047064.6,N
1500772075.9,286047064.6,N
1500772095.8,286047064.5,N
1500772115.6,286047065.2,N
1500772135.4,286047065.9,N
1500772155.3,286047067.6,N
1500772175.1,286047068.1,N
1500772176.0,286047068.1,N
1500772195.8,286047066.0,N
1500772215.7,286047067.6,N
1500772235.5,286047068.6,N
1500772255.3,286047071.5,N
1500772275.2,286047070.9,N
1500772295.9,286047070.7,N
1500772315.7,286047071.2,N
1500772335.6,286047071.0,N
1500772355.4,286047070.8,N
1500772375.2,286047070.5,N
1500772395.1,286047073.1,N
1500772396.0,286047073.1,N
1500772415.8,286047072.6,N
1500772435.6,286047070.3,N
1500772455.5,286047071.4,N
1500772475.3,286047069.7,N
1500772495.1,286047071.4,N
1500772515.8,286047072.6,N
1500772535.7,286047074.7,N
1500772555.5,286047072.1,N
1500772575.3,286047072.6,N
1500772595.2,286047072.4,N
1500772615.0,286047072.1,N
1500772615.9,286047072.1,N
1500772635.7,286047072.0,N
1500772655.6,286047072.2,N
1500772675.4,286047072.1,N
1500772695.2,286047074.3,N
1500772715.1,286047074.1,N
1500772716.0,286047074.1,N
1500772735.8,286047072.7,N
1500772755.6,286047071.0,N
1500772775.5,286047073.1,N
1500772795.3,286047074.6,N
1500772815.1,286047074.0,N
1500772835.9,286047073.8,N
1500772855.7,286047075.5,N
1500772875.5,286047076.4,N
1500772895.4,286047072.0,N
1500772915.2,286047071.7,N
1500772935.0,286047074.3,N
1500772935.9,286047074.3,N
1500772955.8,286047071.8,N
1500772975.6,286047070.1,N
1500772995.4,286047070.5,N
1500773015.3,286047071.4,N
1500773035.1,286047070.7,N
1500773036.0,286047070.7,N
1500773055.8,286047073.2,N
1500773075.7,286047072.0,N
1500773095.5,286047072.3,N
1500773115.3,286047070.2,N
1500773135.1,286047072.0,N
1500773155.9,286047072.5,N
1500773175.7,286047072.7,N
1500773195.5,286047071.8,N
1500773215.4,286047074.8,N
1500773235.2,286047073.2,N
1500773255.0,286047072.4,N
1500773255.9,286047072.4,N
1500773275.8,286047074.0,N
1500773295.6,286047073.6,N
1500773315.4,286047074.4,N
1500773335.3,286047074.6,N
1500773355.1,286047073.6,N
1500773375.8,286047072.0,N
1500773395.7,286047074.5,N
1500773415.5,286047072.0,N
1500773435.3,286047074.6,N
1500773455.2,286047073.3,N
1500773475.9,286047074.3,N
1500773495.7,286047074.6,N
1500773515.6,286047074.2,N
1500773535.4,286047073.3,N
1500773555.2,286047073.9,N
1500773575.1,286047076.0,N
1500773576.0,286047076.0,N
1500773595.8,286047074.0,N
1500773615.6,286047074.0,N
1500773635.5,286047073.5,N
1500773655.3,286047076.0,N
1500773675.1,286047077.9,N
1500773695.9,286047075.1,N
1500773715.7,286047077.9,N
1500773735.5,286047075.6,N
1500773755.3,286047073.5,N
1500773775.2,286047076.4,N
1500773795.0,286047077.2,N
1500773795.9,286047077.2,N
1500773815.7,286047075.3,N
1500773835.6,286047074.9,N
1500773855.4,286047076.8,N
1500773875.2,286047076.5,N
1500773895.1,286047077.1,N
1500773896.0,286047077.1,N
1500773915.8,286047078.0,N
1500773935.6,286047079.6,N
1500773955.5,286047079.0,N
1500773975.3,286047078.7,N
1500773995.1,286047079.5,N
1500774015.9,286047080.8,N
1500774035.7,286047082.3,N
1500774055.5,286047082.8,N
1500774075.4,286047081.0,N
1500774095.2,286047082.0,N
1500774115.0,286047081.6,N
1500774115.9,286047081.6,N
1500774135.8,286047083.6,N
1500774155.6,286047082.2,N
1500774175.4,286047082.4,N
1500774195.3,286047081.6,N
1500774215.1,286047081.3,N
1500774216.0,286047081.3,N
1500774235.8,286047082.2,N
1500774255.7,286047082.6,N
1500774275.5,286047082.1,N
1500774295.3,286047082.5,N
1500774315.2,286047082.3,N
1500774335.9,286047080.3,N
1500774355.7,286047082.6,N
1500774375.6,286047081.8,N
1500774395.4,286047080.0,N
1500774415.2,286047081.8,N
1500774435.0,286047083.9,N
1500774435.9,286047083.9,N
1500774455.8,286047081.5,N
1500774475.6,286047082.6,N
1500774495.4,286047082.7,N
1500774515.3,286047083.0,N
1500774535.1,286047086.0,N
1500774555.8,286047083.5,N
1500774575.7,286047083.9,N
1500774595.5,286047083.8,N
1500774615.3,286047084.3,N
1500774635.2,286047084.1,N
1500774655.0,286047083.1,N
1500774655.9,286047083.1,N
1500774675.7,286047083.0,N
1500774695.6,286047083.9,N
1500774715.4,286047081.7,N
1500774735.2,286047083.2,N
1500774755.1,286047081.6,N
1500774756.0,286047081.6,N
1500774775.8,286047083.9,N
1500774795.6,286047084.0,N
1500774815.5,286047081.3,N
1500774835.3,286047081.6,N
1500774855.1,286047084.3,N
1500774875.9,286047082.9,N
1500774895.7,286047082.9,N
1500774915.5,286047083.7,N
1500774935.4,286047081.5,N
1500774955.2,286047083.4,N
1500774975.0,286047085.8,N
1500774975.9,286047085.8,N
1500774995.8,286047083.8,N
1500775015.6,286047081.3,N
1500775035.4,286047081.3,N
1500775055.3,286047083.5,N
1500775075.1,286047084.1,N
1500775076.0,286047084.1,N
1500775095.8,286047083.5,N
1500775115.7,286047083.6,N
1500775135.5,286047083.6,N
1500775155.3,286047083.3,N
1500775175.1,286047083.1,N
1500775195.9,286047085.5,N
